Location: Dugenta
(41.1333°N, 14.4500°E)
Time: 11:22:30
(UTC+00:00)

Cosmos 2219 Rocket - Pass Details

Date: 03 March 2021
Orbit: 826 x 848 km, 71.0° (Epoch: 21 April)

Event Time Altitude Azimuth Distance (km) Brightness Sun altitude
Rises 19:22:03 0° 213° (SSW) 3,351 5.5 -28.1°
Reaches altitude 10° 19:24:31 10° 217° (SW) 2,423 4.8 -28.6°
Maximum altitude 19:29:59 59° 297° (WNW) 952 2.6 -29.5°
Drops below altitude 10° 19:35:31 10° 17° (NNE) 2,448 4.6 -30.5°
Sets 19:38:01 0° 21° (NNE) 3,389 5.3 -31.0°
